This demonstration page uses our WeatherBlox Daily Observations layout. Learn more.

Left ArrowRight Arrow

Hourly Observations for July 19, 2019

Temp ( °F °C ) Dew Point ( °F °C ) Humidity (%) Winds ( mph kmh ) Pressure ( in mb ) Visibility ( mi km ) Precip ( " mm )
12:53 am 00:53 Clear 74 23.3 73 22.8 97 97 N N/A 29.93 1014 10 16 N/A
1:53 am 01:53 Clear 74 23.3 73 22.8 97 97 N N/A 29.95 1014 10 16 N/A
2:53 am 02:53 Clear with Mist and Fog 73 22.8 72 22.2 96 96 N N/A 29.95 1014 4 6 N/A
3:53 am 03:53 Clear with Mist and Fog 73 22.8 72 22.2 96 96 N N/A 29.95 1014 5 8 N/A
4:48 am 04:48 Mostly Cloudy with Mist and Fog 73 23 73 23 100 100 N N/A 29.94 1014 4 6 N/A
4:53 am 04:53 Mostly Cloudy with Mist and Fog 74 23.3 73 22.8 97 97 N N/A 29.95 1014 5 8 N/A
5:53 am 05:53 Cloudy with Mist and Fog 76 24.4 75 23.9 97 97 S 3 6 29.95 1014 6 10 N/A
6:38 am 06:38 Cloudy with Mist and Fog 76 24.4 75 23.9 97 97 N N/A 29.96 1014 6 10 N/A
6:53 am 06:53 Mostly Cloudy with Mist and Fog 77 25 75 23.9 94 94 N N/A 29.96 1015 6 10 N/A
7:53 am 07:53 Mostly Cloudy 78 25.6 76 24.4 93 93 VRB 5 7 29.98 1015 7 11 N/A
8:13 am 08:13 Cloudy 79 26.1 76 24.4 90 90 VRB 3 6 29.96 1015 7 11 N/A
8:53 am 08:53 Mostly Cloudy 80 26.7 77 25 90 90 VRB 5 7 29.98 1015 8 13 N/A
9:03 am 09:03 Partly Cloudy 82 27.8 77 25 85 85 VRB 3 6 29.98 1015 9 14 N/A
9:33 am 09:33 Mostly Cloudy 82 27.8 77 25 85 85 VRB 5 7 29.99 1016 9 14 N/A
9:40 am 09:40 Mostly Cloudy 82 27.8 77 25 85 85 W 6 9 29.99 1016 9 14 N/A
9:53 am 09:53 Cloudy 83 28.3 77 25 82 82 VRB 6 9 30.00 1016 9 14 N/A
10:53 am 10:53 Mostly Cloudy 85 29.4 78 25.6 80 80 VRB 6 9 29.99 1016 10 16 N/A
11:53 am 11:53 Mostly Cloudy 85 29.4 77 25 77 77 WSW 5 7 29.98 1015 10 16 N/A
12:53 pm 12:53 Partly Cloudy 87 30.6 77 25 72 72 SW 7 11 29.98 1015 10 16 N/A
1:53 pm 13:53 Mostly Sunny 89 31.7 77 25 68 68 VRB 7 11 29.97 1015 9 14 N/A
2:53 pm 14:53 Mostly Sunny 90 32.2 77 25 66 66 SW 9 15 29.96 1014 10 16 N/A
3:53 pm 15:53 Partly Cloudy 89 31.7 76 24.4 65 65 SW 9 15 29.95 1014 10 16 N/A
4:53 pm 16:53 Mostly Cloudy 91 32.8 76 24.4 61 61 SW 9 15 29.95 1014 10 16 N/A
5:53 pm 17:53 Partly Cloudy 90 32.2 75 23.9 62 62 SW 8 13 29.93 1014 10 16 N/A
6:53 pm 18:53 Sunny 90 32.2 76 24.4 63 63 WSW 7 11 29.93 1014 10 16 N/A
7:53 pm 19:53 Sunny 88 31.1 76 24.4 68 68 SW 6 9 29.93 1014 10 16 N/A
8:53 pm 20:53 Sunny 85 29.4 76 24.4 75 75 SSW 5 7 29.92 1013 10 16 N/A
9:53 pm 21:53 Clear 80 26.7 77 25 90 90 N N/A 29.94 1014 10 16 N/A
10:53 pm 22:53 Clear 78 25.6 76 24.4 93 93 N N/A 29.97 1015 8 13 N/A
11:53 pm 23:53 Clear 77 25 76 24.4 96 96 N N/A 29.98 1015 10 16 N/A

Powered by AerisWeather